Garrison, ND

4:40 AM CDT on October 18, 2017 (GMT -0500)
Garrison

Weather History for KN60 - February, 2014

Change the Weather History Date:

Wednesday, February 5, 2014

  Actual Average Record
Temperature  
Mean Temperature -3 °F -  
Max Temperature -1 °F - 52 °F (2012)
Min Temperature -6 °F - -9 °F (2007)
Degree Days  
Heating Degree Days 68    
Month to date heating degree days 317  
Cooling Degree Days 0    
Moisture  
Dew Point -11 °F    
Average Humidity 72    
Maximum Humidity 78    
Minimum Humidity 65    
Precipitation  
Precipitation 0.00 in - 0.12 in (2011)
Month to date precipitation 0.00  
Year to date precipitation 0.61  
Sea Level Pressure  
Sea Level Pressure 30.74 in    
Wind  
Wind Speed 18 mph (NW)    
Max Wind Speed 25 mph    
Max Gust Speed 29 mph    
T = Trace of Precipitation, MM = Missing Value Source: NWS Daily Summary

Daily Weather History Graph

Daily Weather History Graph

Search for Another Location

Airport or City:

Trip Planner

Search our weather history database for the weather conditions in past years. The results will help you decide how hot, cold, wet, or windy it might be!

Date:

Astronomy

Feb. 05, 2014 Rise Set
Actual Time 8:06 AM CST 5:53 PM CST
Civil Twilight 7:34 AM CST 6:25 PM CST
Nautical Twilight 6:57 AM CST 7:02 PM CST
Astronomical Twilight 6:21 AM CST 7:38 PM CST
Moon 10:52 AM CST (2/5) 12:17 AM CST (2/5)
Length of Visible Light 10h 51m
Length of Day
9h 46m
Waxing Crescent, 39% of the Moon is Illuminated
Feb 5
Waxing Crescent
Feb 6
First Quarter
Feb 14
Full
Feb 22
Last Quarter
Mar 1
New

Hourly Weather History & Observations

Time (CST) Temp. Windchill Dew Point Humidity Pressure Visibility Wind Dir Wind Speed Gust Speed Precip Events Conditions
12:52 AM -6.0 °F -27.7 °F -11.9 °F 75% 30.75 in - NW 16.1 mph - N/A   Unknown
1:52 AM -4.0 °F -25.2 °F -11.0 °F 72% 30.75 in - NNW 16.1 mph - N/A   Unknown
2:52 AM -2.9 °F -23.1 °F -9.9 °F 72% 30.76 in - NNW 15.0 mph - N/A   Unknown
3:52 AM -2.9 °F -23.8 °F -9.9 °F 72% 30.77 in - NNW 16.1 mph - N/A   Unknown
4:52 AM -4.0 °F -26.4 °F -9.9 °F 76% 30.78 in - NNW 18.4 mph - N/A   Unknown
5:52 AM -4.0 °F -23.7 °F -9.9 °F 76% 30.78 in - NNW 13.8 mph - N/A   Unknown
6:52 AM -4.0 °F -25.2 °F -9.9 °F 76% 30.78 in - NW 16.1 mph - N/A   Unknown
7:52 AM -5.1 °F -26.6 °F -11.0 °F 76% 30.78 in - NW 16.1 mph - N/A   Unknown
8:52 AM -5.1 °F -26.6 °F -11.9 °F 72% 30.78 in - NW 16.1 mph - N/A   Unknown
9:52 AM -5.1 °F -28.4 °F -11.0 °F 76% 30.79 in - NW 19.6 mph - N/A   Unknown
10:52 AM -4.0 °F -28.6 °F -11.0 °F 72% 30.79 in - NW 23.0 mph - N/A   Unknown
11:52 AM -2.9 °F -25.6 °F -9.9 °F 72% 30.79 in - NNW 19.6 mph - N/A   Unknown
12:52 PM -2.0 °F -25.0 °F -9.9 °F 69% 30.77 in - NW 20.7 mph - N/A   Unknown
1:52 PM -0.9 °F -23.5 °F -9.9 °F 66% 30.75 in - NW 20.7 mph - N/A   Unknown
2:52 PM -0.9 °F -23.0 °F -9.0 °F 69% 30.73 in - NW 19.6 mph - N/A   Unknown
3:52 PM -0.9 °F -22.4 °F -9.0 °F 69% 30.73 in - NW 18.4 mph - N/A   Unknown
4:52 PM -2.0 °F -25.0 °F -9.9 °F 69% 30.73 in - NW 20.7 mph - N/A   Unknown
5:52 PM -5.1 °F -28.4 °F -11.9 °F 72% 30.72 in - NW 19.6 mph - N/A   Unknown
6:52 PM -6.0 °F -28.4 °F -13.0 °F 72% 30.72 in - NW 17.3 mph - N/A   Unknown
7:52 PM -6.0 °F -24.6 °F -14.1 °F 68% 30.70 in - WNW 11.5 mph - N/A   Unknown
8:52 PM -6.0 °F -25.5 °F -11.9 °F 75% 30.69 in - West 12.7 mph - N/A   Unknown
9:52 PM -4.0 °F -24.5 °F -11.0 °F 72% 30.67 in - WNW 15.0 mph - N/A   Unknown
10:52 PM -4.0 °F -25.8 °F -11.0 °F 72% 30.66 in - WNW 17.3 mph 26.5 mph N/A   Unknown
11:52 PM -4.0 °F -25.8 °F -11.0 °F 72% 30.63 in - WNW 17.3 mph 28.8 mph N/A   Unknown